Location: Unspecified
(0.0000°N, 0.0000°E)
Time: 18:17:46
(UTC+00:00)

Transit 2A - All Passes

Search period start: 18 December 2014 00:00
Search period end: 28 December 2014 00:00
Orbit: 595 x 967 km, 66.7° (Epoch: 18 December)

Date Brightness Start Highest point End Pass type
(mag) Time Alt. Az. Time Alt. Az. Time Alt. Az.
18 Dec - 00:21:05 10° NNW 00:27:28 83° WSW 00:33:36 10° SSE night (unlit)
18 Dec - 11:16:19 10° SE 11:18:39 14° ESE 11:21:02 10° ENE daylight
18 Dec - 12:58:10 10° WSW 13:01:31 22° WNW 13:04:58 10° NNW daylight
18 Dec - 23:47:34 10° N 23:53:51 64° ENE 23:59:54 10° SSE night (unlit)
19 Dec - 01:35:20 10° W 01:36:50 11° WSW 01:38:19 10° WSW night (unlit)
19 Dec - 12:23:51 10° SW 12:27:52 39° WNW 12:32:05 10° N daylight
19 Dec - 23:14:19 10° N 23:20:13 40° ENE 23:25:56 10° SE night (unlit)
20 Dec - 00:59:03 10° WNW 01:03:13 18° WSW 01:07:16 10° SSW night (unlit)
20 Dec - 11:49:58 10° SSW 11:54:15 74° WNW 11:58:46 10° NNE daylight
20 Dec - 22:41:25 10° NNE 22:46:34 26° ENE 22:51:34 10° SE night (unlit)
21 Dec - 00:24:16 10° NW 00:29:37 29° WSW 00:34:47 10° SSW night (unlit)
21 Dec - 11:16:26 10° S 11:20:40 59° ESE 11:25:06 10° NNE daylight
21 Dec - 22:09:06 10° NNE 22:12:54 16° ENE 22:16:36 10° ESE night (unlit)
21 Dec - 23:50:00 10° NW 23:56:01 46° WSW 00:01:47 10° S night (unlit)
22 Dec - 10:43:15 10° S 10:47:05 31° ESE 10:51:03 10° NE daylight
22 Dec - 23:16:05 10° NNW 23:22:25 72° WSW 23:28:28 10° SSE night (unlit)
23 Dec - 10:10:35 10° SSE 10:13:30 18° ESE 10:16:29 10° ENE daylight
23 Dec - 11:53:23 10° WSW 11:56:23 18° WNW 11:59:29 10° NNW daylight
23 Dec - 22:42:27 10° NNW 22:48:48 74° ENE 22:54:51 10° SSE night (unlit)
24 Dec - 11:18:51 10° SW 11:22:43 32° WNW 11:26:47 10° N daylight
24 Dec - 22:09:06 10° N 22:15:10 47° ENE 22:20:59 10° SE night (unlit)
24 Dec - 23:54:38 10° WNW 23:58:08 15° WSW 00:01:33 10° SW night (unlit)
25 Dec - 10:44:50 10° SSW 10:49:05 59° WNW 10:53:35 10° N daylight
25 Dec - 21:36:04 10° N 21:41:31 30° ENE 21:46:45 10° SE night (unlit)
25 Dec - 23:19:32 10° NW 23:24:32 25° WSW 23:29:20 10° SSW night (unlit)
26 Dec - 10:11:10 10° SSW 10:15:29 73° ESE 10:20:01 10° NNE daylight
26 Dec - 21:03:31 10° NNE 21:07:50 19° ENE 21:12:02 10° ESE night (unlit)
26 Dec - 22:45:07 10° NW 22:50:56 39° WSW 22:56:29 10° S night (unlit)
27 Dec - 09:37:51 10° S 09:41:53 38° ESE 09:46:07 10° NE daylight
27 Dec - 20:32:09 10° NE 20:34:08 12° ENE 20:36:05 10° E night (unlit)
27 Dec - 22:11:05 10° NNW 22:17:20 62° WSW 22:23:15 10° S night (unlit)
